Location: Mauries
(43.6188°N, 0.3322°W)
Time: 19:11:00
(UTC+00:00)

CUBEBUG 2 - Pass Details

Date: 25 May 2026
Orbit: 545 x 628 km, 97.9° (Epoch: 10 June)

Event Time Altitude Azimuth Distance (km) Brightness Sun altitude
Rises 02:33:15 0° 12° (NNE) 2,723 ? -16.3°
Reaches altitude 10° 02:35:22 10° 12° (NNE) 1,827 ? -16.1°
Maximum altitude 02:39:19 84° 286° (WNW) 560 ? -15.6°
Enters shadow 02:41:26 27° 198° (SSW) 1,091 ? -15.4°
